Simultaneous Nadir Overpasses (SNOs) Predictions

Prediction of SNOs between LANDSAT-8 and METOP-A Satellite Orbit:

Table of predicted SNOs for the next 14.0 days since TLE Epoch: 3/14/2020
Index Date (LANDSAT-8) Time (LANDSAT-8) Lat,Lon (LANDSAT-8) SZA (LANDSAT-8 ) Date (METOP-A) Time (METOP-A) Lat,Lon (METOP-A) SZA (METOP-A ) Distance(km) Time Diff (sec)
1 03/15/2020 13:54:11 -81.48,-162.62 94.39 03/15/2020 13:53:36 -81.49,-162.58 94.39 1.26 35
2 03/15/2020 14:43:37 81.49, 5.15 85.62 03/15/2020 14:44:16 81.48, 5.18 85.64 0.61 39
3 03/18/2020 09:28:23 -81.49, -95.84 95.43 03/18/2020 09:27:57 -81.48, -95.82 95.44 1.20 26
4 03/18/2020 10:17:50 81.48, 71.50 84.52 03/18/2020 10:18:38 81.48, 71.52 84.55 0.38 48
5 03/21/2020 05:02:37 -81.49, -29.48 96.52 03/21/2020 05:02:20 -81.48, -29.46 96.53 0.83 17
6 03/21/2020 05:52:04 81.48, 137.83 83.42 03/21/2020 05:53:01 81.48, 137.85 83.46 0.92 57
7 03/24/2020 00:36:51 -81.49, 36.85 97.62 03/24/2020 00:36:43 -81.48, 36.89 97.62 0.64 8
8 03/24/2020 01:26:17 81.49,-155.48 82.38 03/24/2020 01:27:23 81.48,-155.43 82.40 1.13 66
9 03/26/2020 19:21:37 81.48, -64.51 81.30 03/26/2020 19:20:25 81.49, -64.42 81.28 1.70 72
10 03/26/2020 20:11:04 -81.48, 103.15 98.72 03/26/2020 20:11:05 -81.48, 103.23 98.70 1.41 1




NCC Satellite Simultaneous Nadir Overpasses (SNOs) Prediction Service
